CW6344 Weather Reports


time (UTC)temp
C
wind
direction
speed
KPH
gust
KPH
rain 1hr
cm
rain 24hr
cm
rain mn
cm
humidity
%
barometer
mb
20260901221440 31 207 0.0 0.0 0.00 0.00 0.00 71 1014.4
20260901220440 31 207 0.0 0.0 0.00 0.00 0.00 70 1014.5
20260901214440 31 239 0.0 1.6 0.00 0.00 0.00 71 1014.7
20260901213440 32 256 0.0 0.0 0.00 0.00 0.00 70 1014.7
20260901212540 32 259 0.0 1.6 0.00 0.00 0.00 67 1014.7
20260901211440 32 224 0.0 3.2 0.00 0.00 0.00 65 1014.7
20260901210440 32 258 0.0 4.8 0.00 0.00 0.00 64 1014.7
20260901205440 32 259 0.0 3.2 0.00 0.00 0.00 66 1014.7
20260901204440 33 259 0.0 0.0 0.00 0.00 0.00 65 1014.8
20260901202440 32 242 0.0 1.6 0.00 0.00 0.00 68 1014.9
20260901201440 32 210 0.0 1.6 0.00 0.00 0.00 66 1015.0
20260901200510 31 261 0.0 0.0 0.00 0.00 0.00 70 1015.1
20260901195440 31 265 0.0 0.0 0.00 0.00 0.00 71 1015.2
20260901194440 33 265 0.0 3.2 0.00 0.00 0.00 65 1015.4
20260901192510 33 242 0.0 1.6 0.00 0.00 0.00 64 1015.4
20260901190440 32 229 0.0 4.8 0.00 0.00 0.00 68 1015.4
20260901185440 32 193 0.0 0.0 0.00 0.00 0.00 66 1015.5
20260901184440 32 240 0.0 1.6 0.00 0.00 0.00 67 1015.6
20260901183440 33 240 0.0 0.0 0.00 0.00 0.00 63 1015.6
20260901182440 33 193 3.2 3.2 0.00 0.00 0.00 68 1015.6
20260901180440 32 282 0.0 0.0 0.00 0.00 0.00 70 1015.7
20260901175440 32 282 0.0 0.0 0.00 0.00 0.00 69 1015.8
20260901174440 32 282 0.0 0.0 0.00 0.00 0.00 67 1015.8
20260901173440 32 282 0.0 0.0 0.00 0.00 0.00 66 1015.7
20260901172440 32 304 0.0 6.4 0.00 0.00 0.00 69 1015.6
20260901171440 32 246 0.0 3.2 0.00 0.00 0.00 68 1015.7
20260901170510 32 248 0.0 1.6 0.00 0.00 0.00 69 1015.8
20260901165440 32 248 0.0 4.8 0.00 0.00 0.00 68 1016.1
20260901164440 32 275 1.6 3.2 0.00 0.00 0.00 70 1016.2
20260901162440 31 281 0.0 3.2 0.00 0.00 0.00 75 1016.4
20260901161440 31 257 0.0 0.0 0.00 0.00 0.00 75 1016.6
20260901160440 31 257 0.0 1.6 0.00 0.00 0.00 73 1016.6
20260901155440 31 278 0.0 3.2 0.00 0.00 0.00 73 1016.5
20260901154440 32 279 0.0 1.6 0.00 0.00 0.00 71 1016.7
20260901152440 30 223 0.0 1.6 0.00 0.00 0.00 75 1016.7
20260901151440 30 229 1.6 4.8 0.00 0.00 0.00 74 1016.8
20260901150440 30 283 0.0 4.8 0.00 0.00 0.00 74 1016.9
20260901145440 30 232 0.0 3.2 0.00 0.00 0.00 77 1016.9
20260901144440 29 276 0.0 1.6 0.00 0.00 0.00 76 1017.1
20260901143440 30 299 1.6 3.2 0.00 0.00 0.00 77 1016.9
20260901142440 30 197 1.6 3.2 0.00 0.00 0.00 78 1016.9
20260901141440 29 290 0.0 3.2 0.00 0.00 0.00 79 1016.9
20260901140510 28 321 1.6 1.6 0.00 0.00 0.00 81 1017.0
20260901135440 27 233 0.0 0.0 0.00 0.00 0.00 84 1017.1
20260901134510 27 180 0.0 0.0 0.00 0.00 0.00 84 1017.1
20260901133440 27 178 0.0 4.8 0.00 0.00 0.00 85 1017.1
20260901132510 26 222 0.0 0.0 0.00 0.00 0.00 86 1017.2
20260901131440 26 222 0.0 0.0 0.00 0.00 0.00 86 1017.2
20260901130440 26 222 0.0 0.0 0.00 0.00 0.00 86 1017.3
20260901125441 26 222 0.0 0.0 0.00 0.00 0.00 86 1017.5
20260901124440 26 222 0.0 0.0 0.00 0.00 0.00 86 1017.5
20260901123440 26 223 1.6 3.2 0.00 0.00 0.00 86 1017.4
20260901122441 25 202 0.0 3.2 0.00 0.00 0.00 88 1017.5
20260901121441 25 246 0.0 0.0 0.00 0.00 0.00 89 1017.4
20260901120440 25 246 0.0 0.0 0.00 0.00 0.00 89 1017.4
20260901115441 24 253 0.0 0.0 0.00 0.00 0.00 90 1017.3
20260901114441 24 253 0.0 0.0 0.00 0.00 0.00 91 1017.3
20260901112441 23 195 0.0 0.0 0.00 0.00 0.00 92 1017.1
20260901111441 23 225 0.0 0.0 0.00 0.00 0.00 92 1017.0
20260901110441 23 225 0.0 0.0 0.00 0.00 0.00 92 1016.8
20260901105441 23 213 0.0 0.0 0.00 0.00 0.00 91 1016.7
20260901104441 23 17 0.0 0.0 0.00 0.00 0.00 91 1016.6
20260901103441 23 345 0.0 0.0 0.00 0.00 0.00 91 1016.7
20260901102441 23 13 0.0 0.0 0.00 0.00 0.00 91 1016.8
20260901101441 23 13 0.0 0.0 0.00 0.00 0.00 91 1016.9
20260901100441 23 13 0.0 0.0 0.00 0.00 0.00 91 1017.0
20260901095441 23 13 0.0 0.0 0.00 0.00 0.00 91 1016.9
20260901094440 23 13 0.0 0.0 0.00 0.00 0.00 91 1016.9
20260901092441 23 13 0.0 0.0 0.00 0.00 0.00 91 1016.8
20260901091441 23 13 0.0 0.0 0.00 0.00 0.00 91 1016.8
20260901090441 23 13 0.0 0.0 0.00 0.00 0.00 90 1016.7
20260901085441 23 13 0.0 0.0 0.00 0.00 0.00 90 1016.8
20260901084441 23 13 0.0 0.0 0.00 0.00 0.00 90 1016.7
20260901083441 23 13 0.0 0.0 0.00 0.00 0.00 90 1016.8
20260901082441 23 13 0.0 0.0 0.00 0.00 0.00 90 1016.8
20260901080441 23 13 0.0 0.0 0.00 0.00 0.00 90 1016.9
20260901075441 24 13 0.0 0.0 0.00 0.00 0.00 90 1016.9
20260901074441 24 13 0.0 0.0 0.00 0.00 0.00 90 1017.0
20260901073441 24 13 0.0 0.0 0.00 0.00 0.00 90 1017.0
20260901072441 24 13 0.0 0.0 0.00 0.00 0.00 90 1017.0
20260901071441 24 13 0.0 0.0 0.00 0.00 0.00 90 1017.1
20260901070441 24 13 0.0 0.0 0.00 0.00 0.00 90 1017.0
20260901065441 24 13 0.0 0.0 0.00 0.00 0.00 91 1017.1
20260901064441 24 13 0.0 0.0 0.00 0.00 0.00 91 1017.1
20260901063441 24 13 0.0 0.0 0.00 0.00 0.00 91 1017.2
20260901062441 24 13 0.0 0.0 0.00 0.00 0.00 91 1017.3
20260901060441 25 13 0.0 0.0 0.00 0.00 0.00 90 1017.3
20260901055441 25 13 0.0 0.0 0.00 0.00 0.00 90 1017.4
20260901054441 25 13 0.0 0.0 0.00 0.00 0.00 90 1017.6
20260901053441 25 13 0.0 0.0 0.00 0.00 0.00 90 1017.8
20260901052511 25 13 0.0 0.0 0.00 0.00 0.00 90 1017.8
20260901051441 25 13 0.0 0.0 0.00 0.00 0.00 91 1017.9
20260901050441 25 13 0.0 0.0 0.00 0.00 0.00 91 1017.8
20260901045441 25 13 0.0 0.0 0.00 0.00 0.00 91 1017.9
20260901044511 25 13 0.0 0.0 0.00 0.00 0.00 91 1017.9
20260901043441 25 13 0.0 0.0 0.00 0.00 0.00 91 1018.0
20260901042441 25 13 0.0 0.0 0.00 0.00 0.00 91 1018.0
20260901041441 25 13 0.0 0.0 0.00 0.00 0.00 91 1018.0
20260901040441 25 13 0.0 0.0 0.00 0.00 0.00 91 1018.0
20260901034441 25 13 0.0 0.0 0.00 0.00 0.00 91 1018.0
20260901033441 25 13 0.0 0.0 0.00 0.00 0.00 91 1017.9
20260901032441 25 13 0.0 0.0 0.00 0.00 0.00 91 1017.8
20260901030441 25 13 0.0 0.0 0.00 0.00 0.00 91 1017.8
20260901025441 25 13 0.0 0.0 0.00 0.00 0.00 91 1017.7
20260901024441 25 13 0.0 0.0 0.00 0.00 0.00 91 1017.7
20260901023441 25 13 0.0 0.0 0.00 0.00 0.00 91 1017.7
20260901022441 25 13 0.0 0.0 0.00 0.00 0.00 91 1017.8
20260901021441 25 13 0.0 0.0 0.00 0.00 0.00 91 1017.8
20260901020441 25 13 0.0 0.0 0.00 0.00 0.00 91 1017.8
20260901015441 25 13 0.0 0.0 0.00 0.00 0.00 91 1018.0
20260901014441 25 13 0.0 0.0 0.00 0.00 0.00 91 1018.0
20260901013441 25 13 0.0 0.0 0.00 0.00 0.00 91 1017.9
20260901012511 25 13 0.0 0.0 0.00 0.00 0.00 90 1017.9
20260901011441 25 13 0.0 0.0 0.00 0.00 0.00 90 1017.8
20260901010441 25 13 0.0 0.0 0.00 0.00 0.00 90 1017.8
20260901005441 25 13 0.0 0.0 0.00 0.00 0.00 90 1017.9
20260901004441 25 13 0.0 0.0 0.00 0.00 0.00 90 1017.9
20260901003441 25 13 0.0 0.0 0.00 0.00 0.00 90 1017.9
20260901002441 25 13 0.0 0.0 0.00 0.00 0.00 90 1017.9
20260901001441 25 13 0.0 0.0 0.00 0.00 0.00 89 1017.9
20260901000443 26 13 0.0 0.0 0.00 0.00 0.00 89 1017.8
20260831234441 26 13 0.0 0.0 0.00 0.00 0.00 88 1017.7
20260831233441 26 13 0.0 0.0 0.00 0.00 0.00 87 1017.8
20260831232441 26 13 0.0 0.0 0.00 0.00 0.00 87 1017.9
20260831231441 27 13 0.0 0.0 0.00 0.00 0.00 87 1017.8
20260831230441 27 13 0.0 0.0 0.00 0.00 0.00 86 1017.9
20260831225441 27 13 0.0 0.0 0.00 0.00 0.00 86 1017.7
20260831224441 27 13 0.0 0.0 0.00 0.00 0.00 86 1017.7
20260831223441 27 13 0.0 0.0 0.00 0.00 0.00 86 1017.9
20260831222511 27 13 0.0 0.0 0.00 0.00 0.00 86 1018.0